Location: Saratoga Springs
(43.0831°N, 73.7850°W)
Time: 07:50:05
(UTC-04:00)

Vanguard 1 Rocket - Pass Details

Date: 15 April 2024
Orbit: 650 x 4220 km, 34.3° (Epoch: 22 May)

Event Time Altitude Azimuth Distance (km) Brightness Sun altitude
Rises 20:35:02 0° 233° (SW) 3,315 10.7 -10.5°
Reaches altitude 10° 20:37:13 10° 224° (SW) 2,590 10.0 -10.9°
Maximum altitude 20:42:49 38° 157° (SSE) 1,830 8.6 -11.8°
Enters shadow 20:51:22 13° 97° (E) 4,118 10.2 -13.2°
Drops below altitude 10° 20:52:27 10° 95° (E) 4,472 - -13.4°
Sets 20:57:32 0° 89° (E) 6,101 - -14.2°
